Tracking 19794 objects as of 23-Jul-2019
HD Live streaming from Space Station
objects crossing your sky now

SL-12 R/B(AUX MOTOR)

Track SL-12 R/B(AUX MOTOR) now!
10-day predictions


NORAD ID: 19537
Int'l Code: 1988-085G
Perigee: 321.9 km
Apogee: 18,643.0 km
Inclination: 64.6 °
Period: 331.1 minutes
Semi major axis: 15853 km
RCS: 0.8248 m2 (medium)
Launch date: September 16, 1988
Source: Commonwealth of Independent States (former USSR) (CIS)
Launch site: TYURATAM MISSILE AND SPACE COMPLEX (TTMTR)

Note: This is a ROCKET BODY
aabbcc
Your satellite tracking list
Your tracking list is empty




NASA's NSSDC Master Catalog

Two Line Element Set (TLE):
1 19537U 88085G   19203.76706343 -.00000043 +00000-0 +30364-4 0  9993
2 19537 064.6474 201.4801 5778295 192.3692 143.2186 04.34928148484812
Source of the keplerian elements: AFSPC